Time,TemperatureF,DewpointF,PressureIn,WindDirection,WindDirectionDegrees,WindSpeedMPH,WindSpeedGustMPH,Humidity,HourlyPrecipIn,Conditions,Clouds,dailyrainin,SolarRadiationWatts/m^2,SoftwareType,DateUTC
2013-03-08 00:05:00,28.2,22.6,30.30,NNW,328,0.0,1.0,79,0.00,BKN,SCT,0.00,0.0,WeatherDisplay:10.37,2013-03-08 05:05:00,
2013-03-08 00:10:00,28.4,22.7,30.30,NNW,328,0.0,1.0,79,0.00,BKN,SCT,0.00,0.0,WeatherDisplay:10.37,2013-03-08 05:10:00,
2013-03-08 00:15:00,28.5,22.8,30.29,NNW,328,0.0,1.0,79,0.00,BKN,SCT,0.00,0.0,WeatherDisplay:10.37,2013-03-08 05:15:00,
2013-03-08 00:20:00,28.7,23.0,30.29,NNW,328,0.0,2.0,79,0.00,BKN,SCT,0.00,0.0,WeatherDisplay:10.37,2013-03-08 05:20:00,
2013-03-08 00:25:00,29.0,23.3,30.29,NNW,328,0.0,1.0,79,0.00,BKN,SCT,0.00,0.0,WeatherDisplay:10.37,2013-03-08 05:25:00,
2013-03-08 00:30:00,29.4,23.4,30.29,NNW,328,0.0,3.0,78,0.00,BKN,SCT,0.00,0.0,WeatherDisplay:10.37,2013-03-08 05:30:00,
2013-03-08 00:35:00,29.7,23.4,30.28,NNW,328,0.0,2.0,77,0.00,BKN,SCT,0.00,0.0,WeatherDisplay:10.37,2013-03-08 05:35:00,
2013-03-08 00:40:00,29.8,23.2,30.28,NNW,328,0.0,1.0,76,0.00,BKN,SCT,0.00,0.0,WeatherDisplay:10.37,2013-03-08 05:40:00,
2013-03-08 00:45:00,29.7,23.1,30.28,NNW,328,0.0,0.0,76,0.00,BKN,SCT,0.00,0.0,WeatherDisplay:10.37,2013-03-08 05:45:00,
2013-03-08 00:50:00,29.6,23.0,30.28,NNW,328,0.0,0.0,76,0.00,BKN,SCT,0.00,0.0,WeatherDisplay:10.37,2013-03-08 05:50:00,
2013-03-08 00:55:00,29.4,22.8,30.28,NNW,328,0.0,0.0,76,0.00,BKN,SCT,0.00,0.0,WeatherDisplay:10.37,2013-03-08 05:55:00,
2013-03-08 01:00:00,29.2,22.6,30.29,NNW,328,0.0,1.0,76,0.00,BKN,SCT,0.00,0.0,WeatherDisplay:10.37,2013-03-08 06:00:00,
2013-03-08 01:05:00,28.8,22.5,30.28,NNW,328,0.0,1.0,77,0.00,BKN,SCT,0.00,0.0,WeatherDisplay:10.37,2013-03-08 06:05:00,
2013-03-08 01:10:00,28.6,22.3,30.28,NNW,328,0.0,1.0,77,0.00,BKN,SCT,0.00,0.0,WeatherDisplay:10.37,2013-03-08 06:10:00,
2013-03-08 01:15:00,28.4,22.1,30.28,NNW,328,0.0,0.0,77,0.00,BKN,SCT,0.00,0.0,WeatherDisplay:10.37,2013-03-08 06:15:00,
2013-03-08 01:20:00,28.3,22.3,30.28,NNW,328,0.0,1.0,78,0.00,BKN,SCT,0.00,0.0,WeatherDisplay:10.37,2013-03-08 06:20:00,
2013-03-08 01:25:00,28.3,22.3,30.28,NNW,328,0.0,1.0,78,0.00,BKN,SCT,0.00,0.0,WeatherDisplay:10.37,2013-03-08 06:25:00,
2013-03-08 01:30:00,28.4,22.4,30.28,NNW,328,0.0,2.0,78,0.00,BKN,SCT,0.00,0.0,WeatherDisplay:10.37,2013-03-08 06:30:00,
2013-03-08 01:35:00,28.6,22.6,30.28,NNW,328,0.0,2.0,78,0.00,BKN,SCT,0.00,0.0,WeatherDisplay:10.37,2013-03-08 06:35:00,
2013-03-08 01:40:00,28.9,22.6,30.28,NNW,328,0.0,1.0,77,0.00,BKN,SCT,0.00,0.0,WeatherDisplay:10.37,2013-03-08 06:40:00,
2013-03-08 01:45:00,29.2,22.6,30.27,NNW,328,0.0,1.0,76,0.00,BKN,SCT,0.00,0.0,WeatherDisplay:10.37,2013-03-08 06:45:00,
2013-03-08 01:50:00,29.4,22.8,30.28,NNW,328,0.0,1.0,76,0.00,BKN,SCT,0.00,0.0,WeatherDisplay:10.37,2013-03-08 06:50:00,
2013-03-08 01:55:00,29.5,22.6,30.28,NNW,328,0.0,1.0,75,0.00,BKN,SCT,0.00,0.0,WeatherDisplay:10.37,2013-03-08 06:55:00,
2013-03-08 02:00:00,29.5,22.6,30.28,NNW,328,0.0,0.0,75,0.00,BKN,SCT,0.00,0.0,WeatherDisplay:10.37,2013-03-08 07:00:00,
2013-03-08 02:05:00,29.5,22.6,30.28,NNW,328,0.0,0.0,75,0.00,BKN,SCT,0.00,0.0,WeatherDisplay:10.37,2013-03-08 07:05:00,
2013-03-08 02:10:00,29.4,22.1,30.28,NNW,328,0.0,1.0,74,0.00,BKN,SCT,0.00,0.0,WeatherDisplay:10.37,2013-03-08 07:10:00,
2013-03-08 02:15:00,29.2,21.9,30.28,NNW,328,0.0,0.0,74,0.00,BKN,SCT,0.00,0.0,WeatherDisplay:10.37,2013-03-08 07:15:00,
2013-03-08 02:20:00,29.0,21.8,30.28,NNW,328,0.0,0.0,74,0.00,BKN,SCT,0.00,0.0,WeatherDisplay:10.37,2013-03-08 07:20:00,
2013-03-08 02:25:00,28.8,21.6,30.28,NNW,328,0.0,0.0,74,0.00,BKN,SCT,0.00,0.0,WeatherDisplay:10.37,2013-03-08 07:25:00,
2013-03-08 02:30:00,28.5,21.3,30.28,NNW,328,0.0,0.0,74,0.00,BKN,SCT,0.00,0.0,WeatherDisplay:10.37,2013-03-08 07:30:00,
2013-03-08 02:35:00,28.3,21.4,30.28,NNW,328,0.0,0.0,75,0.00,BKN,SCT,0.00,0.0,WeatherDisplay:10.37,2013-03-08 07:35:00,
2013-03-08 02:40:00,27.9,21.0,30.27,NNW,328,0.0,0.0,75,0.00,BKN,SCT,0.00,0.0,WeatherDisplay:10.37,2013-03-08 07:40:00,
2013-03-08 02:45:00,27.7,20.8,30.27,NNW,328,0.0,0.0,75,0.00,BKN,SCT,0.00,0.0,WeatherDisplay:10.37,2013-03-08 07:45:00,
2013-03-08 02:50:00,27.5,20.6,30.27,NNW,328,0.0,0.0,75,0.00,BKN,SCT,0.00,0.0,WeatherDisplay:10.37,2013-03-08 07:50:00,
2013-03-08 02:55:00,27.3,20.7,30.27,NNW,328,0.0,0.0,76,0.00,BKN,SCT,0.00,0.0,WeatherDisplay:10.37,2013-03-08 07:55:00,
2013-03-08 03:00:00,27.1,20.5,30.27,NNW,328,0.0,1.0,76,0.00,BKN,SCT,0.00,0.0,WeatherDisplay:10.37,2013-03-08 08:00:00,
2013-03-08 03:05:00,26.9,20.7,30.27,NNW,328,0.0,1.0,77,0.00,BKN,SCT,0.00,0.0,WeatherDisplay:10.37,2013-03-08 08:05:00,
2013-03-08 03:10:00,26.7,20.5,30.26,NNW,328,0.0,0.0,77,0.00,BKN,SCT,0.00,0.0,WeatherDisplay:10.37,2013-03-08 08:10:00,
2013-03-08 03:15:00,26.5,20.6,30.26,NNW,328,0.0,2.0,78,0.00,BKN,SCT,0.00,0.0,WeatherDisplay:10.37,2013-03-08 08:15:00,
2013-03-08 03:20:00,26.5,20.9,30.26,NNW,328,0.0,3.0,79,0.00,BKN,SCT,0.00,0.0,WeatherDisplay:10.37,2013-03-08 08:20:00,
2013-03-08 03:25:00,26.5,20.9,30.26,NNW,328,0.0,1.0,79,0.00,BKN,SCT,0.00,0.0,WeatherDisplay:10.37,2013-03-08 08:25:00,
2013-03-08 03:30:00,26.6,21.0,30.26,NNW,328,0.0,1.0,79,0.00,BKN,SCT,0.00,0.0,WeatherDisplay:10.37,2013-03-08 08:30:00,
2013-03-08 03:35:00,26.6,21.0,30.27,NNW,328,0.0,1.0,79,0.00,BKN,SCT,0.00,0.0,WeatherDisplay:10.37,2013-03-08 08:35:00,
2013-03-08 03:40:00,26.7,21.1,30.26,NNW,328,0.0,0.0,79,0.00,BKN,SCT,0.00,0.0,WeatherDisplay:10.37,2013-03-08 08:40:00,
2013-03-08 03:45:00,26.6,21.0,30.26,NNW,328,0.0,0.0,79,0.00,BKN,SCT,0.00,0.0,WeatherDisplay:10.37,2013-03-08 08:45:00,
2013-03-08 03:50:00,26.6,21.0,30.26,NNW,328,0.0,0.0,79,0.00,BKN,SCT,0.00,0.0,WeatherDisplay:10.37,2013-03-08 08:50:00,
2013-03-08 03:55:00,26.6,20.7,30.26,NNW,328,0.0,1.0,78,0.00,BKN,SCT,0.00,0.0,WeatherDisplay:10.37,2013-03-08 08:55:00,
2013-03-08 04:00:00,26.5,20.6,30.26,NNW,328,0.0,0.0,78,0.00,BKN,SCT,0.00,0.0,WeatherDisplay:10.37,2013-03-08 09:00:00,
2013-03-08 04:05:00,26.4,20.8,30.26,NNW,328,0.0,0.0,79,0.00,BKN,SCT,0.00,0.0,WeatherDisplay:10.37,2013-03-08 09:05:00,
2013-03-08 04:10:00,26.3,20.3,30.26,NNW,328,0.0,0.0,78,0.00,BKN,SCT,0.00,0.0,WeatherDisplay:10.37,2013-03-08 09:10:00,
2013-03-08 04:15:00,26.1,20.2,30.26,NNW,328,0.0,0.0,78,0.00,BKN,SCT,0.00,0.0,WeatherDisplay:10.37,2013-03-08 09:15:00,
2013-03-08 04:20:00,26.0,20.1,30.26,NNW,328,0.0,0.0,78,0.00,BKN,SCT,0.00,0.0,WeatherDisplay:10.37,2013-03-08 09:20:00,
2013-03-08 04:25:00,25.7,19.8,30.27,NNW,328,0.0,0.0,78,0.00,BKN,SCT,0.00,0.0,WeatherDisplay:10.37,2013-03-08 09:25:00,
2013-03-08 04:30:00,25.6,19.6,30.26,NNW,328,0.0,0.0,78,0.00,BKN,SCT,0.00,0.0,WeatherDisplay:10.37,2013-03-08 09:30:00,
2013-03-08 04:35:00,25.4,19.8,30.27,NNW,328,0.0,0.0,79,0.00,BKN,SCT,0.00,0.0,WeatherDisplay:10.37,2013-03-08 09:35:00,
2013-03-08 04:40:00,25.2,19.6,30.27,NNW,328,0.0,0.0,79,0.00,BKN,SCT,0.00,0.0,WeatherDisplay:10.37,2013-03-08 09:40:00,
2013-03-08 04:45:00,25.1,19.8,30.27,NNW,328,0.0,0.0,80,0.00,BKN,SCT,0.00,0.0,WeatherDisplay:10.37,2013-03-08 09:45:00,
2013-03-08 04:50:00,25.1,19.8,30.27,NNW,328,0.0,0.0,80,0.00,BKN,SCT,0.00,0.0,WeatherDisplay:10.37,2013-03-08 09:50:00,
2013-03-08 04:55:00,24.9,19.6,30.28,NNW,328,0.0,0.0,80,0.00,BKN,SCT,0.00,0.0,WeatherDisplay:10.37,2013-03-08 09:55:00,
2013-03-08 05:00:00,24.8,19.5,30.28,NNW,328,0.0,2.0,80,0.00,BKN,SCT,0.00,0.0,WeatherDisplay:10.37,2013-03-08 10:00:00,
2013-03-08 05:05:00,24.8,19.8,30.28,NNW,328,0.0,2.0,81,0.00,BKN,SCT,0.00,0.0,WeatherDisplay:10.37,2013-03-08 10:05:00,
2013-03-08 05:10:00,24.9,20.1,30.28,NNW,328,0.0,1.0,82,0.00,BKN,SCT,0.00,0.0,WeatherDisplay:10.37,2013-03-08 10:10:00,
2013-03-08 05:15:00,24.9,20.2,30.28,NNW,328,0.0,1.0,82,0.00,BKN,SCT,0.00,0.0,WeatherDisplay:10.37,2013-03-08 10:15:00,
2013-03-08 05:20:00,25.0,20.3,30.29,NNW,328,0.0,2.0,82,0.00,BKN,SCT,0.00,0.0,WeatherDisplay:10.37,2013-03-08 10:20:00,
2013-03-08 05:25:00,25.3,20.6,30.28,NNW,328,1.0,4.0,82,0.00,BKN,SCT,0.00,0.0,WeatherDisplay:10.37,2013-03-08 10:25:00,
2013-03-08 05:30:00,26.1,21.4,30.28,NNW,328,1.0,3.0,82,0.00,BKN,SCT,0.00,0.0,WeatherDisplay:10.37,2013-03-08 10:30:00,
2013-03-08 05:35:00,27.0,22.2,30.28,NNW,328,1.0,4.0,82,0.00,BKN,SCT,0.00,0.0,WeatherDisplay:10.37,2013-03-08 10:35:00,
2013-03-08 05:40:00,27.8,22.7,30.28,NNW,328,1.0,3.0,81,0.00,BKN,SCT,0.00,0.0,WeatherDisplay:10.37,2013-03-08 10:40:00,
2013-03-08 05:45:00,28.3,22.6,30.29,NNW,328,1.0,4.0,79,0.00,BKN,SCT,0.00,0.0,WeatherDisplay:10.37,2013-03-08 10:45:00,
2013-03-08 05:50:00,28.8,22.8,30.29,NNW,328,1.0,2.0,78,0.00,BKN,SCT,0.00,0.0,WeatherDisplay:10.37,2013-03-08 10:50:00,
2013-03-08 05:55:00,29.1,22.8,30.29,NNW,328,0.0,2.0,77,0.00,BKN,SCT,0.00,0.0,WeatherDisplay:10.37,2013-03-08 10:55:00,
2013-03-08 06:00:00,29.4,22.8,30.29,NNW,328,0.0,1.0,76,0.00,BKN,SCT,0.00,0.0,WeatherDisplay:10.37,2013-03-08 11:00:00,
2013-03-08 06:05:00,29.6,22.6,30.29,NNW,328,0.0,0.0,75,0.00,BKN,SCT,0.00,0.0,WeatherDisplay:10.37,2013-03-08 11:05:00,
2013-03-08 06:10:00,29.8,22.5,30.29,NNW,328,0.0,0.0,74,0.00,BKN,SCT,0.00,0.0,WeatherDisplay:10.37,2013-03-08 11:10:00,
2013-03-08 06:20:00,29.9,22.3,30.29,NNW,328,0.0,1.0,73,0.00,BKN,SCT,0.00,0.0,WeatherDisplay:10.37,2013-03-08 11:20:00,
2013-03-08 06:25:00,29.8,21.9,30.30,NNW,328,0.0,1.0,72,0.00,BKN,SCT,0.00,0.0,WeatherDisplay:10.37,2013-03-08 11:25:00,
2013-03-08 06:30:00,29.7,21.8,30.30,NNW,328,0.0,0.0,72,0.00,BKN,SCT,0.00,0.0,WeatherDisplay:10.37,2013-03-08 11:30:00,
2013-03-08 06:35:00,29.6,21.7,30.31,NNW,328,0.0,1.0,72,0.00,BKN,SCT,0.00,0.0,WeatherDisplay:10.37,2013-03-08 11:35:00,
2013-03-08 06:40:00,29.5,21.6,30.31,NNW,327,0.0,0.0,72,0.00,BKN,SCT,0.00,0.0,WeatherDisplay:10.37,2013-03-08 11:40:00,
2013-03-08 06:45:00,29.3,21.1,30.30,NNW,327,0.0,0.0,71,0.00,BKN,SCT,0.00,5.0,WeatherDisplay:10.37,2013-03-08 11:45:00,
2013-03-08 06:50:00,29.1,21.2,30.31,NNW,327,0.0,0.0,72,0.00,BKN,SCT,0.00,7.0,WeatherDisplay:10.37,2013-03-08 11:50:00,
2013-03-08 06:55:00,28.8,20.9,30.31,NNW,327,0.0,0.0,72,0.00,BKN,SCT,0.00,11.0,WeatherDisplay:10.37,2013-03-08 11:55:00,
2013-03-08 07:00:00,28.7,20.8,30.31,NNW,327,0.0,0.0,72,0.00,BKN,SCT,0.00,16.0,WeatherDisplay:10.37,2013-03-08 12:00:00,
2013-03-08 07:05:00,28.5,20.9,30.31,NNW,327,0.0,0.0,73,0.00,BKN,SCT,0.00,33.0,WeatherDisplay:10.37,2013-03-08 12:05:00,
2013-03-08 07:10:00,28.3,20.7,30.31,NNW,327,0.0,1.0,73,0.00,CLR,SCT,0.00,58.0,WeatherDisplay:10.37,2013-03-08 12:10:00,
2013-03-08 07:15:00,28.3,21.1,30.31,NNW,327,0.0,1.0,74,0.00,CLR,SCT,0.00,79.0,WeatherDisplay:10.37,2013-03-08 12:15:00,
2013-03-08 07:20:00,28.4,21.5,30.31,NW,326,1.0,3.0,75,0.00,CLR,SCT,0.00,97.0,WeatherDisplay:10.37,2013-03-08 12:20:00,
2013-03-08 07:25:00,28.7,21.8,30.31,NW,314,0.0,3.0,75,0.00,CLR,SCT,0.00,118.0,WeatherDisplay:10.37,2013-03-08 12:25:00,
2013-03-08 07:30:00,28.9,22.3,30.31,WNW,297,0.0,2.0,76,0.00,CLR,SCT,0.00,135.0,WeatherDisplay:10.37,2013-03-08 12:30:00,
2013-03-08 07:35:00,29.3,22.7,30.31,WNW,297,0.0,2.0,76,0.00,CLR,SCT,0.00,149.0,WeatherDisplay:10.37,2013-03-08 12:35:00,
2013-03-08 07:40:00,29.7,23.1,30.31,WNW,297,0.0,2.0,76,0.00,CLR,SCT,0.00,162.0,WeatherDisplay:10.37,2013-03-08 12:40:00,
2013-03-08 07:45:00,30.2,23.5,30.31,NW,307,0.0,1.0,76,0.00,CLR,SCT,0.00,169.0,WeatherDisplay:10.37,2013-03-08 12:45:00,
2013-03-08 07:50:00,30.7,24.0,30.32,NW,317,0.0,2.0,76,0.00,CLR,SCT,0.00,181.0,WeatherDisplay:10.37,2013-03-08 12:50:00,
2013-03-08 07:55:00,31.2,24.6,30.32,NW,320,0.0,2.0,76,0.00,BKN,SCT,0.00,195.0,WeatherDisplay:10.37,2013-03-08 12:55:00,
2013-03-08 08:00:00,31.9,24.9,30.33,NW,320,1.0,2.0,75,0.00,CLR,SCT,0.00,213.0,WeatherDisplay:10.37,2013-03-08 13:00:00,
2013-03-08 08:05:00,32.6,24.9,30.33,NW,325,0.0,4.0,73,0.00,CLR,SCT,0.00,230.0,WeatherDisplay:10.37,2013-03-08 13:05:00,
2013-03-08 08:10:00,33.4,25.3,30.33,NW,326,1.0,4.0,72,0.00,CLR,SCT,0.00,248.0,WeatherDisplay:10.37,2013-03-08 13:10:00,
2013-03-08 08:15:00,34.2,25.4,30.34,NNW,332,1.0,6.0,70,0.00,CLR,SCT,0.00,265.0,WeatherDisplay:10.37,2013-03-08 13:15:00,
2013-03-08 08:20:00,34.8,25.7,30.34,NNW,338,1.0,7.0,69,0.00,CLR,SCT,0.00,285.0,WeatherDisplay:10.37,2013-03-08 13:20:00,
2013-03-08 08:25:00,35.6,25.7,30.34,NNW,340,2.0,6.0,67,0.00,CLR,SCT,0.00,301.0,WeatherDisplay:10.37,2013-03-08 13:25:00,
2013-03-08 08:30:00,36.3,26.0,30.34,NNW,332,3.0,7.0,66,0.00,CLR,SCT,0.00,316.0,WeatherDisplay:10.37,2013-03-08 13:30:00,
2013-03-08 08:35:00,36.9,26.3,30.35,NNW,327,5.0,9.0,65,0.00,CLR,SCT,0.00,336.0,WeatherDisplay:10.37,2013-03-08 13:35:00,
2013-03-08 08:40:00,37.4,26.3,30.35,NNW,333,5.0,10.0,64,0.00,CLR,SCT,0.00,355.0,WeatherDisplay:10.37,2013-03-08 13:40:00,
2013-03-08 08:45:00,37.8,26.3,30.35,NNW,336,5.0,9.0,63,0.00,CLR,SCT,0.00,374.0,WeatherDisplay:10.37,2013-03-08 13:45:00,
2013-03-08 08:55:00,38.6,26.3,30.35,NNW,333,5.0,9.0,61,0.00,CLR,SCT,0.00,408.0,WeatherDisplay:10.37,2013-03-08 13:55:00,
2013-03-08 09:00:00,39.1,27.1,30.35,NNW,335,3.0,8.0,62,0.00,CLR,SCT,0.00,422.0,WeatherDisplay:10.37,2013-03-08 14:00:00,
2013-03-08 09:05:00,39.6,26.8,30.35,NNW,337,3.0,10.0,60,0.00,CLR,SCT,0.00,438.0,WeatherDisplay:10.37,2013-03-08 14:05:00,
2013-03-08 09:10:00,40.0,26.8,30.34,NNW,339,0.0,6.0,59,0.00,CLR,SCT,0.00,455.0,WeatherDisplay:10.37,2013-03-08 14:10:00,
2013-03-08 09:15:00,40.3,27.9,30.34,NNW,331,3.0,6.0,61,0.00,CLR,SCT,0.00,475.0,WeatherDisplay:10.37,2013-03-08 14:15:00,
2013-03-08 09:25:00,41.4,27.3,30.34,North,352,6.0,8.0,57,0.00,CLR,SCT,0.00,508.0,WeatherDisplay:10.37,2013-03-08 14:25:00,
2013-03-08 09:30:00,41.6,27.1,30.34,NNW,343,5.0,7.0,56,0.00,CLR,SCT,0.00,526.0,WeatherDisplay:10.37,2013-03-08 14:30:00,
2013-03-08 09:35:00,41.8,27.2,30.34,NNW,346,6.0,13.0,56,0.00,CLR,SCT,0.00,541.0,WeatherDisplay:10.37,2013-03-08 14:35:00,
2013-03-08 09:40:00,41.9,26.9,30.34,NNW,344,6.0,12.0,55,0.00,CLR,SCT,0.00,555.0,WeatherDisplay:10.37,2013-03-08 14:40:00,
2013-03-08 09:45:00,41.9,26.5,30.34,North,350,7.0,10.0,54,0.00,CLR,SCT,0.00,571.0,WeatherDisplay:10.37,2013-03-08 14:45:00,
2013-03-08 09:50:00,42.1,27.1,30.34,North,5,6.0,12.0,55,0.00,CLR,SCT,0.00,591.0,WeatherDisplay:10.37,2013-03-08 14:50:00,
2013-03-08 09:55:00,43.9,26.9,30.34,North,0,5.0,14.0,51,0.00,OVC,SCT,0.00,657.0,WeatherDisplay:10.37,2013-03-08 14:55:00,
2013-03-08 10:00:00,43.9,26.9,30.34,North,0,5.0,14.0,51,0.00,OVC,SCT,0.00,657.0,WeatherDisplay:10.37,2013-03-08 15:00:00,
2013-03-08 10:05:00,45.4,27.3,30.33,North,0,5.0,13.0,49,0.00,OVC,SCT,0.00,726.0,WeatherDisplay:10.37,2013-03-08 15:05:00,
2013-03-08 10:10:00,45.4,27.3,30.33,North,0,5.0,13.0,49,0.00,OVC,SCT,0.00,726.0,WeatherDisplay:10.37,2013-03-08 15:10:00,
2013-03-08 10:15:00,45.4,27.3,30.33,North,0,5.0,13.0,49,0.00,OVC,SCT,0.00,726.0,WeatherDisplay:10.37,2013-03-08 15:15:00,
2013-03-08 10:20:00,45.4,27.3,30.33,North,0,5.0,13.0,49,0.00,OVC,SCT,0.00,726.0,WeatherDisplay:10.37,2013-03-08 15:20:00,
2013-03-08 10:25:00,45.4,27.3,30.33,North,0,5.0,13.0,49,0.00,OVC,SCT,0.00,726.0,WeatherDisplay:10.37,2013-03-08 15:25:00,
2013-03-08 10:30:00,45.4,27.3,30.33,North,0,5.0,13.0,49,0.00,OVC,SCT,0.00,726.0,WeatherDisplay:10.37,2013-03-08 15:30:00,
2013-03-08 10:35:00,46.2,26.5,30.32,NNW,335,6.0,16.0,46,0.00,OVC,SCT,0.00,789.0,WeatherDisplay:10.37,2013-03-08 15:35:00,
2013-03-08 10:40:00,46.2,26.5,30.32,NW,315,6.0,16.0,46,0.00,OVC,SCT,0.00,789.0,WeatherDisplay:10.37,2013-03-08 15:40:00,
2013-03-08 10:45:00,46.2,26.5,30.32,NW,315,6.0,16.0,46,0.00,OVC,SCT,0.00,789.0,WeatherDisplay:10.37,2013-03-08 15:45:00,
2013-03-08 10:50:00,46.2,26.5,30.32,NW,315,6.0,16.0,46,0.00,OVC,SCT,0.00,789.0,WeatherDisplay:10.37,2013-03-08 15:50:00,
2013-03-08 10:55:00,46.2,26.5,30.32,NW,315,6.0,16.0,46,0.00,OVC,SCT,0.00,789.0,WeatherDisplay:10.37,2013-03-08 15:55:00,
2013-03-08 11:00:00,46.2,26.5,30.32,NW,315,6.0,16.0,46,0.00,OVC,SCT,0.00,789.0,WeatherDisplay:10.37,2013-03-08 16:00:00,
2013-03-08 11:05:00,48.1,26.6,30.31,NW,326,6.0,17.0,43,0.00,OVC,SCT,0.00,832.0,WeatherDisplay:10.37,2013-03-08 16:05:00,
2013-03-08 11:10:00,48.1,26.6,30.31,NNW,338,6.0,17.0,43,0.00,OVC,SCT,0.00,832.0,WeatherDisplay:10.37,2013-03-08 16:10:00,
2013-03-08 11:15:00,48.1,26.6,30.31,NNW,338,6.0,17.0,43,0.00,OVC,SCT,0.00,832.0,WeatherDisplay:10.37,2013-03-08 16:15:00,
2013-03-08 11:20:00,48.1,26.6,30.31,NNW,338,6.0,17.0,43,0.00,OVC,SCT,0.00,832.0,WeatherDisplay:10.37,2013-03-08 16:20:00,
2013-03-08 11:25:00,48.1,26.6,30.31,NNW,338,6.0,17.0,43,0.00,OVC,SCT,0.00,832.0,WeatherDisplay:10.37,2013-03-08 16:25:00,
2013-03-08 11:30:00,48.1,26.6,30.31,NNW,338,6.0,17.0,43,0.00,OVC,SCT,0.00,832.0,WeatherDisplay:10.37,2013-03-08 16:30:00,
2013-03-08 11:35:00,49.7,27.5,30.30,NNW,348,5.0,14.0,42,0.00,OVC,SCT,0.00,859.0,WeatherDisplay:10.37,2013-03-08 16:35:00,
2013-03-08 11:40:00,49.7,27.5,30.30,North,0,5.0,14.0,42,0.00,OVC,SCT,0.00,859.0,WeatherDisplay:10.37,2013-03-08 16:40:00,
2013-03-08 11:45:00,49.7,27.5,30.30,North,0,5.0,14.0,42,0.00,OVC,SCT,0.00,859.0,WeatherDisplay:10.37,2013-03-08 16:45:00,
2013-03-08 11:50:00,49.7,27.5,30.30,North,0,5.0,14.0,42,0.00,OVC,SCT,0.00,859.0,WeatherDisplay:10.37,2013-03-08 16:50:00,
2013-03-08 11:55:00,49.7,27.5,30.30,North,0,5.0,14.0,42,0.00,OVC,SCT,0.00,859.0,WeatherDisplay:10.37,2013-03-08 16:55:00,
2013-03-08 12:00:00,49.7,27.5,30.30,North,0,5.0,14.0,42,0.00,OVC,SCT,0.00,859.0,WeatherDisplay:10.37,2013-03-08 17:00:00,
2013-03-08 12:05:00,50.8,26.7,30.28,North,0,5.0,13.0,39,0.00,OVC,SCT,0.00,867.0,WeatherDisplay:10.37,2013-03-08 17:05:00,
2013-03-08 12:10:00,50.8,26.7,30.28,North,0,5.0,13.0,39,0.00,OVC,SCT,0.00,867.0,WeatherDisplay:10.37,2013-03-08 17:10:00,
2013-03-08 12:15:00,50.8,26.7,30.28,North,0,5.0,13.0,39,0.00,OVC,SCT,0.00,867.0,WeatherDisplay:10.37,2013-03-08 17:15:00,
2013-03-08 12:20:00,50.8,26.7,30.28,North,0,5.0,13.0,39,0.00,OVC,SCT,0.00,867.0,WeatherDisplay:10.37,2013-03-08 17:20:00,
2013-03-08 12:30:00,50.8,26.7,30.28,North,0,5.0,13.0,39,0.00,OVC,SCT,0.00,867.0,WeatherDisplay:10.37,2013-03-08 17:30:00,
2013-03-08 12:35:00,52.3,26.1,30.26,NW,326,5.0,13.0,36,0.00,OVC,SCT,0.00,859.0,WeatherDisplay:10.37,2013-03-08 17:35:00,
2013-03-08 12:40:00,52.3,26.1,30.26,WNW,292,5.0,13.0,36,0.00,OVC,SCT,0.00,859.0,WeatherDisplay:10.37,2013-03-08 17:40:00,
2013-03-08 12:45:00,52.3,26.1,30.26,WNW,292,5.0,13.0,36,0.00,OVC,SCT,0.00,859.0,WeatherDisplay:10.37,2013-03-08 17:45:00,
2013-03-08 12:50:00,52.3,26.1,30.26,WNW,292,5.0,13.0,36,0.00,OVC,SCT,0.00,859.0,WeatherDisplay:10.37,2013-03-08 17:50:00,
2013-03-08 12:55:00,52.3,26.1,30.26,WNW,292,5.0,13.0,36,0.00,OVC,SCT,0.00,859.0,WeatherDisplay:10.37,2013-03-08 17:55:00,
2013-03-08 13:00:00,52.3,26.1,30.26,WNW,292,5.0,13.0,36,0.00,OVC,SCT,0.00,859.0,WeatherDisplay:10.37,2013-03-08 18:00:00,
2013-03-08 13:05:00,53.4,27.1,30.24,WNW,303,5.0,12.0,36,0.00,OVC,SCT,0.00,829.0,WeatherDisplay:10.37,2013-03-08 18:05:00,
2013-03-08 13:10:00,53.4,27.1,30.24,NW,315,5.0,12.0,36,0.00,OVC,SCT,0.00,829.0,WeatherDisplay:10.37,2013-03-08 18:10:00,
2013-03-08 13:15:00,53.4,27.1,30.24,NW,315,5.0,12.0,36,0.00,OVC,SCT,0.00,829.0,WeatherDisplay:10.37,2013-03-08 18:15:00,
2013-03-08 13:20:00,53.4,27.1,30.24,NW,315,5.0,12.0,36,0.00,OVC,SCT,0.00,829.0,WeatherDisplay:10.37,2013-03-08 18:20:00,
2013-03-08 13:25:00,53.4,27.1,30.24,NW,315,5.0,12.0,36,0.00,OVC,SCT,0.00,829.0,WeatherDisplay:10.37,2013-03-08 18:25:00,
2013-03-08 13:30:00,53.4,27.1,30.24,NW,315,5.0,12.0,36,0.00,OVC,SCT,0.00,829.0,WeatherDisplay:10.37,2013-03-08 18:30:00,
2013-03-08 13:35:00,54.0,25.5,30.24,NW,315,3.0,12.0,33,0.00,OVC,SCT,0.00,787.0,WeatherDisplay:10.37,2013-03-08 18:35:00,
2013-03-08 13:40:00,54.0,25.5,30.24,NW,315,3.0,12.0,33,0.00,OVC,SCT,0.00,787.0,WeatherDisplay:10.37,2013-03-08 18:40:00,
2013-03-08 13:45:00,54.0,25.5,30.24,NW,315,3.0,12.0,33,0.00,OVC,SCT,0.00,787.0,WeatherDisplay:10.37,2013-03-08 18:45:00,
2013-03-08 13:50:00,54.0,25.5,30.24,NW,315,3.0,12.0,33,0.00,OVC,SCT,0.00,787.0,WeatherDisplay:10.37,2013-03-08 18:50:00,
2013-03-08 13:55:00,54.0,25.5,30.24,NW,315,3.0,12.0,33,0.00,OVC,SCT,0.00,787.0,WeatherDisplay:10.37,2013-03-08 18:55:00,
2013-03-08 14:00:00,54.0,25.5,30.24,NW,315,3.0,12.0,33,0.00,OVC,SCT,0.00,787.0,WeatherDisplay:10.37,2013-03-08 19:00:00,
2013-03-08 14:05:00,55.5,26.1,30.23,NW,315,5.0,16.0,32,0.00,OVC,SCT,0.00,728.0,WeatherDisplay:10.37,2013-03-08 19:05:00,
2013-03-08 14:10:00,55.5,26.1,30.23,NW,315,5.0,16.0,32,0.00,OVC,SCT,0.00,728.0,WeatherDisplay:10.37,2013-03-08 19:10:00,
2013-03-08 14:15:00,55.5,26.1,30.23,NW,315,5.0,16.0,32,0.00,OVC,SCT,0.00,728.0,WeatherDisplay:10.37,2013-03-08 19:15:00,
2013-03-08 14:20:00,55.5,26.1,30.23,NW,315,5.0,16.0,32,0.00,OVC,SCT,0.00,728.0,WeatherDisplay:10.37,2013-03-08 19:20:00,
2013-03-08 14:25:00,55.5,26.1,30.23,NW,315,5.0,16.0,32,0.00,OVC,SCT,0.00,728.0,WeatherDisplay:10.37,2013-03-08 19:25:00,
2013-03-08 14:30:00,55.5,26.1,30.23,NW,315,5.0,16.0,32,0.00,OVC,SCT,0.00,728.0,WeatherDisplay:10.37,2013-03-08 19:30:00,
2013-03-08 14:35:00,56.2,25.1,30.24,NW,315,3.0,14.0,30,0.00,OVC,SCT,0.00,650.0,WeatherDisplay:10.37,2013-03-08 19:35:00,
2013-03-08 14:40:00,56.2,25.1,30.24,NW,315,3.0,14.0,30,0.00,OVC,SCT,0.00,650.0,WeatherDisplay:10.37,2013-03-08 19:40:00,
2013-03-08 14:45:00,56.2,25.1,30.24,NW,315,3.0,14.0,30,0.00,OVC,SCT,0.00,650.0,WeatherDisplay:10.37,2013-03-08 19:45:00,
2013-03-08 14:50:00,56.2,25.1,30.24,NW,315,3.0,14.0,30,0.00,OVC,SCT,0.00,650.0,WeatherDisplay:10.37,2013-03-08 19:50:00,
2013-03-08 14:55:00,56.2,25.1,30.24,NW,315,3.0,14.0,30,0.00,OVC,SCT,0.00,650.0,WeatherDisplay:10.37,2013-03-08 19:55:00,
2013-03-08 15:00:00,56.2,25.1,30.24,NW,315,3.0,14.0,30,0.00,OVC,SCT,0.00,650.0,WeatherDisplay:10.37,2013-03-08 20:00:00,
2013-03-08 15:05:00,56.9,26.5,30.23,NW,315,3.0,16.0,31,0.00,OVC,SCT,0.00,564.0,WeatherDisplay:10.37,2013-03-08 20:05:00,
2013-03-08 15:10:00,56.9,26.5,30.23,NW,315,3.0,16.0,31,0.00,OVC,SCT,0.00,564.0,WeatherDisplay:10.37,2013-03-08 20:10:00,
2013-03-08 15:15:00,56.9,26.5,30.23,NW,315,3.0,16.0,31,0.00,OVC,SCT,0.00,564.0,WeatherDisplay:10.37,2013-03-08 20:15:00,
2013-03-08 15:20:00,56.9,26.5,30.23,NW,315,3.0,16.0,31,0.00,OVC,SCT,0.00,564.0,WeatherDisplay:10.37,2013-03-08 20:20:00,
2013-03-08 15:25:00,56.9,26.5,30.23,NW,315,3.0,16.0,31,0.00,OVC,SCT,0.00,564.0,WeatherDisplay:10.37,2013-03-08 20:25:00,
2013-03-08 15:30:00,56.9,26.5,30.23,NW,315,3.0,16.0,31,0.00,OVC,SCT,0.00,564.0,WeatherDisplay:10.37,2013-03-08 20:30:00,
2013-03-08 16:30:00,57.2,26.8,30.23,NW,320,3.0,9.0,31,0.00,FEW,SCT,0.00,420.0,WeatherDisplay:10.37,2013-03-08 21:30:00,
2013-03-08 16:35:00,57.1,24.3,30.23,NW,319,7.0,12.0,28,0.00,FEW,SCT,0.00,401.0,WeatherDisplay:10.37,2013-03-08 21:35:00,
2013-03-08 16:40:00,56.8,23.1,30.23,NW,326,6.0,14.0,27,0.00,FEW,SCT,0.00,380.0,WeatherDisplay:10.37,2013-03-08 21:40:00,
2013-03-08 16:50:00,56.3,23.6,30.23,NNW,343,9.0,14.0,28,0.00,FEW,SCT,0.00,345.0,WeatherDisplay:10.37,2013-03-08 21:50:00,
2013-03-08 16:55:00,56.2,25.1,30.23,NNW,341,7.0,14.0,30,0.00,FEW,SCT,0.00,325.0,WeatherDisplay:10.37,2013-03-08 21:55:00,
2013-03-08 17:00:00,56.0,24.2,30.23,NNW,348,5.0,12.0,29,0.00,FEW,SCT,0.00,309.0,WeatherDisplay:10.37,2013-03-08 22:00:00,
2013-03-08 17:05:00,56.0,24.1,30.23,NNW,348,3.0,10.0,29,0.00,FEW,SCT,0.00,292.0,WeatherDisplay:10.37,2013-03-08 22:05:00,
2013-03-08 17:15:00,55.8,24.8,30.23,North,358,6.0,10.0,30,0.00,SCT,SCT,0.00,251.0,WeatherDisplay:10.37,2013-03-08 22:15:00,
2013-03-08 17:20:00,55.5,25.3,30.23,North,352,5.0,13.0,31,0.00,SCT,SCT,0.00,232.0,WeatherDisplay:10.37,2013-03-08 22:20:00,
2013-03-08 17:25:00,55.3,24.4,30.23,NNW,348,5.0,10.0,30,0.00,SCT,SCT,0.00,213.0,WeatherDisplay:10.37,2013-03-08 22:25:00,
2013-03-08 17:30:00,55.1,25.0,30.23,NNW,338,5.0,7.0,31,0.00,SCT,SCT,0.00,193.0,WeatherDisplay:10.37,2013-03-08 22:30:00,
2013-03-08 17:35:00,55.0,24.9,30.23,NNW,342,3.0,6.0,31,0.00,SCT,SCT,0.00,178.0,WeatherDisplay:10.37,2013-03-08 22:35:00,
2013-03-08 17:40:00,54.9,24.8,30.23,NNW,339,2.0,7.0,31,0.00,SCT,SCT,0.00,158.0,WeatherDisplay:10.37,2013-03-08 22:40:00,
2013-03-08 17:45:00,54.7,25.4,30.23,NNW,337,2.0,7.0,32,0.00,SCT,SCT,0.00,139.0,WeatherDisplay:10.37,2013-03-08 22:45:00,
2013-03-08 17:50:00,54.5,25.2,30.24,North,350,3.0,7.0,32,0.00,SCT,SCT,0.00,120.0,WeatherDisplay:10.37,2013-03-08 22:50:00,
2013-03-08 17:55:00,54.2,25.0,30.24,North,7,3.0,6.0,32,0.00,BKN,SCT,0.00,98.0,WeatherDisplay:10.37,2013-03-08 22:55:00,
2013-03-08 18:00:00,53.9,25.4,30.24,North,356,3.0,8.0,33,0.00,BKN,SCT,0.00,76.0,WeatherDisplay:10.37,2013-03-08 23:00:00,
2013-03-08 18:05:00,53.5,25.8,30.24,NNW,344,2.0,5.0,34,0.00,BKN,SCT,0.00,58.0,WeatherDisplay:10.37,2013-03-08 23:05:00,
2013-03-08 18:10:00,53.2,24.8,30.24,NNW,347,3.0,7.0,33,0.00,BKN,SCT,0.00,44.0,WeatherDisplay:10.37,2013-03-08 23:10:00,
2013-03-08 18:15:00,52.7,25.1,30.24,NNW,334,3.0,7.0,34,0.00,BKN,SCT,0.00,25.0,WeatherDisplay:10.37,2013-03-08 23:15:00,
2013-03-08 18:20:00,52.4,24.8,30.24,North,3,1.0,4.0,34,0.00,BKN,SCT,0.00,11.0,WeatherDisplay:10.37,2013-03-08 23:20:00,
2013-03-08 18:25:00,51.9,25.1,30.24,NE,44,2.0,6.0,35,0.00,BKN,SCT,0.00,5.0,WeatherDisplay:10.37,2013-03-08 23:25:00,
2013-03-08 18:30:00,51.5,25.4,30.24,NNE,22,2.0,7.0,36,0.00,BKN,SCT,0.00,0.0,WeatherDisplay:10.37,2013-03-08 23:30:00,
2013-03-08 18:40:00,50.6,25.3,30.25,North,3,1.0,4.0,37,0.00,BKN,SCT,0.00,0.0,WeatherDisplay:10.37,2013-03-08 23:40:00,
2013-03-08 18:45:00,50.2,25.5,30.25,North,3,0.0,4.0,38,0.00,BKN,SCT,0.00,0.0,WeatherDisplay:10.37,2013-03-08 23:45:00,
2013-03-08 18:50:00,49.7,25.7,30.25,North,359,5.0,9.0,39,0.00,BKN,SCT,0.00,0.0,WeatherDisplay:10.37,2013-03-08 23:50:00,
2013-03-08 18:55:00,49.4,25.4,30.25,North,357,2.0,6.0,39,0.00,BKN,SCT,0.00,0.0,WeatherDisplay:10.37,2013-03-08 23:55:00,
2013-03-08 19:00:00,49.2,25.9,30.26,North,359,1.0,3.0,40,0.00,BKN,SCT,0.00,0.0,WeatherDisplay:10.37,2013-03-09 00:00:00,
2013-03-08 19:05:00,48.9,26.2,30.26,NNE,12,1.0,8.0,41,0.00,BKN,SCT,0.00,0.0,WeatherDisplay:10.37,2013-03-09 00:05:00,
2013-03-08 19:15:00,48.3,25.7,30.26,NE,37,1.0,4.0,41,0.00,BKN,SCT,0.00,0.0,WeatherDisplay:10.37,2013-03-09 00:15:00,
2013-03-08 19:20:00,48.1,26.1,30.25,North,9,3.0,8.0,42,0.00,BKN,SCT,0.00,0.0,WeatherDisplay:10.37,2013-03-09 00:20:00,
2013-03-08 19:25:00,47.9,25.9,30.26,NNW,336,3.0,8.0,42,0.00,BKN,SCT,0.00,0.0,WeatherDisplay:10.37,2013-03-09 00:25:00,
2013-03-08 19:30:00,47.7,25.7,30.26,NNW,336,2.0,7.0,42,0.00,BKN,SCT,0.00,0.0,WeatherDisplay:10.37,2013-03-09 00:30:00,
2013-03-08 19:35:00,47.5,26.1,30.26,NNW,347,1.0,7.0,43,0.00,BKN,SCT,0.00,0.0,WeatherDisplay:10.37,2013-03-09 00:35:00,
2013-03-08 19:45:00,47.1,26.2,30.26,North,353,3.0,9.0,44,0.00,BKN,SCT,0.00,0.0,WeatherDisplay:10.37,2013-03-09 00:45:00,
2013-03-08 19:50:00,46.9,26.6,30.27,North,357,5.0,9.0,45,0.00,BKN,SCT,0.00,0.0,WeatherDisplay:10.37,2013-03-09 00:50:00,
2013-03-08 19:55:00,46.7,25.9,30.27,North,1,2.0,6.0,44,0.00,BKN,SCT,0.00,0.0,WeatherDisplay:10.37,2013-03-09 00:55:00,
2013-03-08 20:00:00,46.6,26.4,30.27,North,4,2.0,5.0,45,0.00,BKN,SCT,0.00,0.0,WeatherDisplay:10.37,2013-03-09 01:00:00,
2013-03-08 20:10:00,46.3,26.1,30.28,NNE,14,1.0,4.0,45,0.00,BKN,SCT,0.00,0.0,WeatherDisplay:10.37,2013-03-09 01:10:00,
2013-03-08 20:15:00,46.1,25.9,30.28,NNE,15,0.0,3.0,45,0.00,BKN,SCT,0.00,0.0,WeatherDisplay:10.37,2013-03-09 01:15:00,
2013-03-08 20:20:00,45.9,26.3,30.28,NNE,14,3.0,6.0,46,0.00,BKN,SCT,0.00,0.0,WeatherDisplay:10.37,2013-03-09 01:20:00,
2013-03-08 20:30:00,45.5,26.4,30.28,NNE,13,1.0,5.0,47,0.00,BKN,SCT,0.00,0.0,WeatherDisplay:10.37,2013-03-09 01:30:00,
2013-03-08 20:40:00,45.0,26.0,30.28,NNE,13,1.0,3.0,47,0.00,BKN,SCT,0.00,0.0,WeatherDisplay:10.37,2013-03-09 01:40:00,
2013-03-08 20:45:00,44.9,26.4,30.29,NNE,13,0.0,3.0,48,0.00,BKN,SCT,0.00,0.0,WeatherDisplay:10.37,2013-03-09 01:45:00,
2013-03-08 20:50:00,44.8,25.7,30.29,NNE,13,0.0,3.0,47,0.00,BKN,SCT,0.00,0.0,WeatherDisplay:10.37,2013-03-09 01:50:00,
2013-03-08 20:55:00,44.6,26.1,30.29,NNE,13,0.0,3.0,48,0.00,BKN,SCT,0.00,0.0,WeatherDisplay:10.37,2013-03-09 01:55:00,
2013-03-08 21:00:00,44.4,25.9,30.29,NNE,13,0.0,1.0,48,0.00,BKN,SCT,0.00,0.0,WeatherDisplay:10.37,2013-03-09 02:00:00,
2013-03-08 21:05:00,44.2,25.7,30.29,NNE,12,1.0,5.0,48,0.00,BKN,SCT,0.00,0.0,WeatherDisplay:10.37,2013-03-09 02:05:00,
2013-03-08 21:10:00,44.0,25.5,30.29,NNE,12,0.0,2.0,48,0.00,BKN,SCT,0.00,0.0,WeatherDisplay:10.37,2013-03-09 02:10:00,
2013-03-08 21:15:00,43.8,25.9,30.30,NNE,12,0.0,5.0,49,0.00,BKN,SCT,0.00,0.0,WeatherDisplay:10.37,2013-03-09 02:15:00,
2013-03-08 21:20:00,43.6,25.7,30.29,North,11,2.0,5.0,49,0.00,BKN,SCT,0.00,0.0,WeatherDisplay:10.37,2013-03-09 02:20:00,
2013-03-08 21:25:00,43.4,26.0,30.29,North,10,0.0,3.0,50,0.00,BKN,SCT,0.00,0.0,WeatherDisplay:10.37,2013-03-09 02:25:00,
2013-03-08 21:30:00,43.3,25.9,30.31,North,9,0.0,1.0,50,0.00,BKN,SCT,0.00,0.0,WeatherDisplay:10.37,2013-03-09 02:30:00,
2013-03-08 21:35:00,43.1,26.2,30.31,North,9,1.0,2.0,51,0.00,BKN,SCT,0.00,0.0,WeatherDisplay:10.37,2013-03-09 02:35:00,
2013-03-08 21:40:00,42.5,26.1,30.31,North,9,0.0,1.0,52,0.00,BKN,SCT,0.00,0.0,WeatherDisplay:10.37,2013-03-09 02:40:00,
2013-03-08 21:45:00,42.0,26.1,30.31,North,9,0.0,1.0,53,0.00,BKN,SCT,0.00,0.0,WeatherDisplay:10.37,2013-03-09 02:45:00,
2013-03-08 21:50:00,41.6,25.7,30.32,North,9,0.0,1.0,53,0.00,BKN,SCT,0.00,0.0,WeatherDisplay:10.37,2013-03-09 02:50:00,
2013-03-08 21:55:00,41.4,26.0,30.32,North,9,0.0,2.0,54,0.00,BKN,SCT,0.00,0.0,WeatherDisplay:10.37,2013-03-09 02:55:00,
2013-03-08 22:00:00,41.1,25.7,30.32,North,9,0.0,1.0,54,0.00,BKN,SCT,0.00,0.0,WeatherDisplay:10.37,2013-03-09 03:00:00,
2013-03-08 22:05:00,40.4,25.5,30.33,North,9,2.0,3.0,55,0.00,BKN,SCT,0.00,0.0,WeatherDisplay:10.37,2013-03-09 03:05:00,
2013-03-08 22:10:00,39.9,25.5,30.32,North,9,1.0,3.0,56,0.00,BKN,SCT,0.00,0.0,WeatherDisplay:10.37,2013-03-09 03:10:00,
2013-03-08 22:15:00,39.7,25.7,30.32,North,9,0.0,3.0,57,0.00,BKN,SCT,0.00,0.0,WeatherDisplay:10.37,2013-03-09 03:15:00,
2013-03-08 22:20:00,39.5,25.5,30.32,North,9,0.0,1.0,57,0.00,BKN,SCT,0.00,0.0,WeatherDisplay:10.37,2013-03-09 03:20:00,
2013-03-08 22:25:00,39.4,25.4,30.33,North,9,0.0,1.0,57,0.00,BKN,SCT,0.00,0.0,WeatherDisplay:10.37,2013-03-09 03:25:00,
2013-03-08 22:35:00,38.8,25.7,30.33,North,9,1.0,2.0,59,0.00,BKN,SCT,0.00,0.0,WeatherDisplay:10.37,2013-03-09 03:35:00,
2013-03-08 22:40:00,37.8,25.6,30.33,North,9,1.0,3.0,61,0.00,BKN,SCT,0.00,0.0,WeatherDisplay:10.37,2013-03-09 03:40:00,
2013-03-08 22:45:00,37.0,25.2,30.33,North,9,0.0,2.0,62,0.00,BKN,SCT,0.00,0.0,WeatherDisplay:10.37,2013-03-09 03:45:00,
2013-03-08 22:50:00,36.9,25.5,30.33,North,9,0.0,1.0,63,0.00,BKN,SCT,0.00,0.0,WeatherDisplay:10.37,2013-03-09 03:50:00,
2013-03-08 22:55:00,36.7,25.3,30.32,North,9,1.0,2.0,63,0.00,BKN,SCT,0.00,0.0,WeatherDisplay:10.37,2013-03-09 03:55:00,
2013-03-08 23:00:00,36.6,25.2,30.32,North,9,1.0,2.0,63,0.00,BKN,SCT,0.00,0.0,WeatherDisplay:10.37,2013-03-09 04:00:00,
2013-03-08 23:05:00,36.7,25.3,30.33,North,9,0.0,1.0,63,0.00,BKN,SCT,0.00,0.0,WeatherDisplay:10.37,2013-03-09 04:05:00,
2013-03-08 23:10:00,36.7,25.7,30.33,North,9,0.0,2.0,64,0.00,BKN,SCT,0.00,0.0,WeatherDisplay:10.37,2013-03-09 04:10:00,
2013-03-08 23:15:00,36.6,25.6,30.33,North,9,0.0,2.0,64,0.00,BKN,SCT,0.00,0.0,WeatherDisplay:10.37,2013-03-09 04:15:00,
2013-03-08 23:20:00,36.4,25.3,30.33,North,9,0.0,1.0,64,0.00,BKN,SCT,0.00,0.0,WeatherDisplay:10.37,2013-03-09 04:20:00,
2013-03-08 23:25:00,35.8,25.2,30.32,North,9,0.0,1.0,65,0.00,BKN,SCT,0.00,0.0,WeatherDisplay:10.37,2013-03-09 04:25:00,
2013-03-08 23:30:00,35.4,25.2,30.33,North,9,0.0,1.0,66,0.00,BKN,SCT,0.00,0.0,WeatherDisplay:10.37,2013-03-09 04:30:00,
2013-03-08 23:35:00,35.0,24.8,30.33,North,9,0.0,0.0,66,0.00,BKN,SCT,0.00,0.0,WeatherDisplay:10.37,2013-03-09 04:35:00,
2013-03-08 23:40:00,34.7,24.8,30.33,North,9,0.0,1.0,67,0.00,BKN,SCT,0.00,0.0,WeatherDisplay:10.37,2013-03-09 04:40:00,
2013-03-08 23:45:00,34.3,24.9,30.33,North,9,0.0,1.0,68,0.00,BKN,SCT,0.00,0.0,WeatherDisplay:10.37,2013-03-09 04:45:00,
2013-03-08 23:50:00,33.9,24.8,30.33,North,9,0.0,1.0,69,0.00,BKN,SCT,0.00,0.0,WeatherDisplay:10.37,2013-03-09 04:50:00,
2013-03-08 23:55:00,33.7,24.6,30.33,North,9,0.0,0.0,69,0.00,BKN,SCT,0.00,0.0,WeatherDisplay:10.37,2013-03-09 04:55:00,